Back to catalog

STARLINK-5359

AliveCommunicationsVLEO
NORAD 54864·PAYLOAD·🇺🇸 United States

Launched Dec 28, 2022 from Cape Canaveral Space Force Station

Loading…

Next Passes (next 24 hours)

TLE

FreshSource: CelesTrak SupGP

Epoch: Sep 14, 2026, 14:01 UTC

1 54864C 22177AW  26257.58451389  .00029433  00000+0  10663-2 0  2576
2 54864  43.0007 135.1028 0001183 251.6377 193.9451 15.27557629    19

Track STARLINK-5359 in real time with AllMySat

Download on the App Store